Wind_Speed
16 22 26 33 39 42 44 44 48 54 56 55 54 55 54 51 50 46 43 40 36 37 38 37 41 39 38 33 31 30 31 31 32 33 31 32 31 31 29 26 25 24 24
13 13 16 19 21 24 28 31 40 47 54 56 57 57 56 55 53 51 47 44 42 39 41 39 40 43 43 40 34 32 32 32 33 35 38 33 31 29 28 26 27 23 23
15 18 22 23 20 23 25 26 36 42 45 50 57 59 57 58 55 53 51 47 45 42 42 42 42 46 46 45 42 37 36 35 33 33 37 39 35 32 30 28 25 25 22
16 18 27 25 22 22 23 26 31 34 37 42 47 55 58 58 57 55 52 51 49 44 44 45 43 47 48 48 50 44 42 39 37 36 35 37 37 34 32 31 28 28 27
30 32 31 32 29 23 18 18 27 35 41 40 40 44 54 56 55 57 56 54 50 50 49 50 51 51 50 49 46 45 45 43 40 40 36 35 36 34 30 31 30 30 30
35 34 36 36 37 36 26 15 14 24 27 26 29 38 45 54 55 55 54 53 54 55 54 54 52 51 51 52 52 49 46 41 43 42 38 39 36 36 32 28 25 28 32
32 36 38 35 37 40 36 33 19 11 13 17 26 33 38 50 55 54 55 56 55 56 55 60 61 53 42 48 50 51 50 47 44 42 42 42 39 38 37 35 34 27 29
34 39 45 39 35 39 41 33 29 25 14 12 18 26 31 37 51 53 53 52 55 58 58 56 61 65 63 60 48 45 50 49 50 45 43 43 42 41 40 39 39 36 36
35 42 43 42 44 37 40 29 34 27 21 16 16 19 22 30 38 47 47 44 43 47 59 60 58 60 63 65 63 61 53 49 50 50 50 47 45 43 43 43 43 44 43
40 44 44 48 39 46 38 29 35 30 30 24 22 24 25 26 34 44 45 44 43 41 54 62 64 62 61 60 62 61 58 58 54 52 52 52 50 47 46 46 46 47 48
43 44 47 46 52 46 42 21 41 30 33 18 21 25 28 26 28 42 50 49 51 44 42 57 61 62 62 62 58 59 61 59 57 57 53 50 53 52 50 49 50 51 52
39 44 46 49 52 39 27 26 34 36 32 22 23 22 30 32 30 38 51 55 55 53 54 53 61 63 64 65 64 63 62 59 61 62 57 55 54 54 53 54 53 54 55
40 47 48 53 54 52 58 53 52 43 33 18 26 23 19 27 37 41 46 54 61 68 63 58 58 65 67 70 73 73 73 70 67 62 61 60 57 57 56 55 57 57 58
43 47 54 56 57 57 53 56 58 49 27 31 28 16 17 23 27 35 49 55 61 65 67 67 69 67 67 67 72 76 73 70 68 67 66 64 62 63 60 58 59 60 58
44 49 56 57 56 58 59 54 55 48 50 45 36 28 14 21 28 32 37 46 60 69 71 72 73 72 74 74 77 78 73 68 70 68 65 65 65 68 69 68 64 62 64
49 56 57 53 58 59 59 57 57 55 55 51 40 46 22 22 27 33 42 46 52 60 70 75 78 80 82 79 81 83 81 75 72 69 70 67 65 66 66 72 70 69 65
55 56 53 55 56 56 57 55 59 61 67 64 61 56 39 40 33 44 39 50 50 53 59 68 76 82 86 87 88 86 88 85 80 80 79 76 73 74 73 72 70 72 71
57 54 51 56 58 58 60 61 65 67 70 70 70 66 58 59 54 61 41 46 54 53 52 59 69 76 84 91 90 89 89 88 86 84 81 80 76 73 72 73 75 76 76
52 54 51 58 64 62 64 65 65 70 79 77 76 79 73 67 67 68 55 51 49 60 56 58 62 71 79 82 88 94 95 93 92 88 83 82 83 81 80 80 78 75 76
49 55 54 63 64 67 71 70 72 77 80 81 84 84 86 84 82 83 76 60 51 53 62 61 63 66 74 84 86 87 88 89 91 93 92 86 88 86 83 85 82 83 77
50 57 61 66 68 65 67 73 78 81 84 84 86 87 87 94 87 88 88 71 57 49 61 60 59 62 71 79 91 90 91 89 86 88 90 90 87 86 81 84 79 78 83
54 59 63 69 69 66 69 78 82 84 86 89 87 85 92 97 95 94 88 84 65 53 53 59 61 62 65 74 89 95 99 93 92 88 86 88 85 80 73 74 81 82 82
60 63 69 71 76 71 77 82 84 87 88 89 90 92 96 101 99 102 91 96 71 59 53 55 61 62 64 71 80 96 104 104 101 98 88 87 91 88 84 80 79 77 76
67 69 74 79 76 78 85 86 90 91 90 94 96 102 104 105 103 105 101 97 73 60 57 54 57 62 64 71 74 85 95 97 98 105 104 100 97 94 90 92 90 88 85
72 75 80 80 78 86 88 91 93 94 94 97 102 105 108 103 111 113 109 95 71 60 55 52 50 59 64 70 74 78 85 81 83 86 87 93 97 99 99 97 97 94 91
77 80 83 84 87 90 94 94 94 95 98 103 106 110 111 113 117 115 114 92 69 61 56 51 51 56 63 68 72 73 77 79 78 75 78 83 84 88 96 97 97 97 96
Wind_Direction
273 272 276 272 269 268 264 260 259 257 254 250 247 245 249 250 247 247 245 245 246 248 250 250 246 247 252 250 256 258 259 258 252 245 245 247 252 252 256 261 261 267 269
332 329 311 296 277 278 272 271 265 260 252 249 247 243 242 247 250 246 245 245 247 248 248 248 248 249 250 251 256 261 263 261 258 251 247 246 248 249 250 252 255 252 262
16 11 346 325 311 295 278 272 259 258 256 252 242 241 238 244 247 249 248 245 246 247 247 246 246 248 249 250 255 265 266 263 260 258 252 249 247 250 250 250 247 245 243
35 12 21 4 345 319 289 275 262 265 257 252 249 241 237 238 245 245 246 248 247 248 246 246 247 250 253 255 253 259 266 265 261 257 254 251 250 251 253 248 244 244 236
53 40 29 25 18 2 323 284 254 258 262 265 250 246 239 236 239 244 246 246 249 247 245 246 248 251 253 254 258 258 263 261 261 258 255 254 252 251 254 248 244 242 235
47 41 37 32 21 19 12 345 288 257 260 253 244 243 236 237 239 240 245 247 247 246 243 245 249 252 255 256 257 256 257 257 257 256 255 253 253 253 248 240 242 241 238
38 36 24 17 24 23 19 9 351 318 266 251 246 245 242 234 234 239 243 249 251 249 250 248 247 243 249 257 257 255 253 255 255 255 252 254 252 249 245 242 236 226 230
22 16 18 23 16 16 10 16 8 1 341 271 262 251 245 238 233 235 242 249 254 253 252 253 250 251 251 246 239 251 255 254 253 251 253 253 251 249 246 240 238 238 234
17 8 9 14 8 11 11 21 19 4 347 333 297 263 257 246 235 232 231 245 251 256 254 252 254 256 255 254 256 254 243 248 252 253 253 253 250 249 246 241 239 239 238
7 2 0 1 10 7 15 26 17 16 7 337 308 280 252 249 245 230 230 235 242 255 255 253 251 256 258 259 255 253 254 250 244 251 252 251 249 247 246 245 242 240 239
1 354 354 356 5 6 15 32 15 16 7 349 328 294 260 249 249 233 227 233 235 237 255 248 248 251 254 254 253 253 250 250 251 252 249 252 248 247 246 245 245 243 241
351 343 346 354 360 6 16 7 2 6 4 1 336 312 292 266 252 244 234 234 237 242 243 244 244 247 252 251 250 251 251 249 250 249 248 247 245 246 245 247 246 246 246
339 344 345 346 360 358 351 356 0 10 13 12 1 309 301 292 272 255 249 245 245 247 248 251 248 247 251 255 255 257 256 256 255 256 253 250 246 245 248 249 248 247 248
336 341 340 350 345 347 357 1 2 1 12 359 358 347 318 288 280 276 265 256 251 251 251 253 253 250 248 250 255 255 256 258 259 258 258 251 248 249 250 253 254 251 251
330 334 344 345 348 351 356 357 357 2 357 358 349 351 324 317 279 265 267 267 258 251 252 251 250 252 250 250 251 253 253 251 254 254 253 253 250 251 253 255 254 252 252
329 334 339 347 346 347 352 351 353 352 353 352 348 350 316 329 313 282 261 258 259 264 260 255 252 252 255 252 252 251 251 253 251 250 251 248 249 250 251 251 254 255 254
328 334 343 344 345 345 347 347 346 345 347 346 343 338 323 322 308 323 284 265 257 253 260 261 254 252 250 252 254 253 255 252 251 251 250 251 251 249 250 250 249 249 252
331 336 340 340 341 341 340 339 342 340 338 337 337 337 333 324 319 316 305 276 260 257 257 263 259 252 251 250 252 252 252 252 252 249 250 251 249 249 249 250 252 251 250
328 332 336 335 334 333 333 334 335 334 334 334 334 332 332 331 326 327 312 308 279 257 256 254 261 260 252 251 252 251 249 251 252 249 248 251 251 251 253 255 253 255 252
322 327 332 332 331 330 330 332 330 329 330 330 330 331 330 331 331 328 322 311 289 270 255 256 252 259 259 250 250 251 255 253 251 251 249 249 253 253 252 254 253 253 253
319 323 326 329 329 327 324 326 326 325 325 325 326 327 327 327 324 328 323 314 302 276 260 252 256 255 257 256 249 249 250 255 255 255 254 252 252 252 252 247 249 251 251
315 318 319 323 324 321 319 321 321 320 322 322 324 323 322 325 325 326 324 319 304 285 262 257 255 258 256 255 251 248 247 250 251 252 253 256 255 253 251 248 246 248 250
313 315 316 318 320 315 320 318 319 319 319 320 321 320 322 322 324 325 322 322 304 292 275 262 253 253 255 253 251 247 245 246 248 246 247 252 257 260 259 259 260 260 258
312 312 313 316 315 313 315 315 317 318 317 318 318 318 320 323 322 324 323 320 305 293 281 264 255 250 251 251 252 251 246 246 247 250 251 250 251 255 260 263 264 262 263
308 310 309 312 310 313 314 313 314 315 313 315 316 318 318 319 318 320 323 319 303 292 282 262 257 255 250 251 251 251 250 248 249 250 252 255 255 254 255 257 260 263 265
306 306 308 310 312 312 311 311 312 313 313 316 317 318 318 319 317 318 318 316 300 291 285 266 256 258 253 251 251 251 249 247 247 247 248 251 253 255 256 258 259 262 265
Height
10785 10785 10783 10781 10779 10778 10778 10777 10778 10779 10784 10789 10794 10797 10800 10804 10807 10810 10812 10814 10817 10819 10821 10824 10826 10827 10829 10829 10831 10833 10834 10835 10835 10836 10836 10837 10838 10839 10840 10841 10843 10843 10843
10783 10780 10775 10774 10772 10771 10771 10771 10770 10769 10771 10776 10782 10785 10791 10795 10799 10802 10805 10807 10810 10812 10815 10817 10819 10821 10822 10824 10825 10827 10827 10828 10829 10830 10831 10832 10834 10835 10836 10836 10838 10841 10840
10779 10778 10774 10770 10767 10765 10765 10761 10759 10760 10762 10764 10767 10773 10780 10785 10790 10794 10797 10801 10803 10805 10807 10810 10812 10814 10816 10817 10818 10820 10820 10821 10823 10824 10824 10825 10828 10829 10830 10831 10833 10835 10837
10779 10776 10771 10767 10763 10760 10756 10753 10752 10753 10753 10754 10757 10762 10769 10774 10781 10785 10789 10792 10795 10797 10799 10802 10804 10806 10808 10809 10811 10812 10813 10814 10816 10816 10817 10820 10822 10823 10824 10825 10827 10829 10832
10779 10775 10770 10765 10761 10756 10752 10749 10747 10747 10746 10747 10748 10754 10760 10765 10769 10775 10779 10783 10786 10789 10791 10793 10795 10796 10798 10800 10802 10804 10805 10807 10809 10807 10813 10813 10814 10816 10818 10820 10821 10823 10824
10777 10774 10770 10765 10761 10754 10748 10743 10741 10740 10739 10739 10741 10745 10749 10757 10763 10767 10770 10773 10776 10777 10780 10782 10784 10786 10788 10790 10792 10795 10797 10799 10800 10801 10805 10804 10808 10810 10812 10813 10815 10817 10818
10775 10773 10770 10765 10760 10754 10748 10742 10738 10735 10733 10734 10735 10737 10740 10746 10752 10758 10762 10764 10766 10768 10770 10772 10773 10772 10775 10779 10781 10784 10788 10790 10791 10793 10796 10797 10800 10802 10804 10806 10807 10810 10810
10771 10769 10766 10763 10757 10753 10748 10742 10738 10733 10730 10729 10730 10732 10735 10738 10743 10749 10754 10757 10757 10758 10761 10762 10763 10765 10766 10766 10764 10771 10777 10780 10782 10785 10786 10788 10791 10793 10795 10798 10800 10802 10804
10768 10766 10764 10760 10757 10752 10747 10742 10738 10733 10730 10727 10725 10725 10728 10730 10734 10739 10746 10746 10747 10747 10750 10751 10753 10755 10757 10760 10762 10765 10764 10769 10771 10775 10777 10779 10782 10784 10786 10789 10791 10793 10795
10765 10763 10760 10756 10754 10749 10744 10740 10737 10732 10729 10725 10723 10722 10723 10725 10725 10729 10734 10734 10737 10737 10736 10738 10741 10743 10745 10749 10752 10755 10758 10760 10760 10762 10768 10770 10772 10774 10777 10779 10782 10783 10785
10762 10760 10757 10754 10749 10745 10740 10739 10737 10732 10728 10722 10720 10717 10717 10718 10720 10720 10722 10722 10725 10723 10720 10724 10728 10730 10733 10735 10738 10741 10745 10749 10750 10753 10757 10759 10762 10765 10767 10769 10771 10773 10774
10759 10755 10752 10748 10745 10739 10739 10736 10734 10730 10726 10721 10720 10716 10715 10714 10714 10715 10717 10716 10714 10711 10708 10711 10715 10719 10721 10722 10723 10725 10730 10735 10736 10740 10745 10747 10750 10754 10757 10760 10762 10763 10764
10756 10752 10748 10744 10738 10737 10734 10730 10726 10721 10721 10719 10717 10713 10709 10711 10713 10710 10707 10708 10707 10704 10706 10706 10707 10708 10710 10711 10713 10715 10718 10724 10725 10730 10735 10738 10740 10743 10746 10749 10751 10753 10754
10749 10745 10742 10735 10733 10732 10727 10721 10715 10715 10712 10712 10709 10707 10709 10707 10704 10704 10702 10698 10695 10693 10694 10697 10697 10696 10696 10696 10699 10700 10708 10713 10713 10716 10720 10725 10727 10730 10732 10737 10739 10742 10743
10746 10742 10734 10732 10727 10721 10716 10712 10709 10709 10704 10702 10701 10698 10697 10697 10696 10691 10690 10687 10685 10680 10679 10681 10682 10682 10682 10683 10683 10685 10692 10698 10700 10702 10703 10709 10713 10716 10719 10722 10726 10727 10728
10736 10733 10731 10726 10719 10714 10709 10706 10703 10700 10696 10694 10690 10690 10687 10683 10682 10679 10676 10671 10669 10668 10665 10664 10665 10666 10663 10668 10667 10670 10675 10681 10686 10686 10688 10693 10697 10699 10703 10706 10711 10713 10714
10730 10728 10721 10716 10712 10707 10703 10700 10696 10691 10687 10684 10686 10683 10678 10673 10671 10668 10662 10656 10653 10649 10649 10644 10644 10646 10646 10647 10651 10653 10656 10660 10666 10672 10672 10677 10680 10683 10686 10689 10694 10697 10699
10721 10716 10712 10708 10705 10699 10696 10693 10688 10683 10682 10678 10673 10671 10671 10667 10660 10654 10649 10644 10637 10633 10631 10630 10627 10622 10623 10626 10629 10632 10636 10640 10645 10651 10653 10658 10663 10667 10669 10673 10677 10679 10682
10712 10707 10703 10700 10697 10693 10688 10684 10680 10677 10672 10667 10661 10657 10652 10650 10644 10636 10630 10626 10621 10617 10613 10610 10610 10607 10603 10603 10605 10608 10613 10619 10623 10628 10634 10638 10644 10650 10653 10655 10660 10662 10665
10703 10697 10695 10691 10688 10684 10678 10673 10669 10665 10660 10656 10650 10645 10637 10632 10625 10621 10614 10608 10600 10595 10593 10590 10590 10589 10586 10584 10584 10585 10587 10594 10600 10605 10611 10617 10622 10629 10634 10636 10641 10646 10648
10695 10688 10685 10682 10678 10673 10667 10663 10658 10653 10647 10640 10634 10628 10621 10618 10613 10605 10598 10589 10582 10575 10572 10570 10570 10570 10569 10567 10567 10568 10570 10573 10577 10581 10587 10595 10601 10606 10610 10618 10621 10626 10629
10688 10680 10674 10671 10667 10662 10657 10651 10644 10638 10630 10624 10618 10613 10606 10600 10593 10586 10578 10570 10563 10557 10552 10550 10548 10549 10549 10549 10548 10550 10553 10555 10559 10564 10569 10573 10577 10583 10591 10596 10601 10607 10611
10677 10670 10664 10661 10657 10651 10647 10638 10631 10624 10616 10608 10601 10594 10587 10580 10575 10567 10558 10549 10539 10535 10531 10528 10526 10526 10529 10529 10528 10529 10532 10536 10538 10544 10552 10554 10557 10561 10567 10573 10581 10587 10591
10665 10660 10653 10649 10644 10639 10634 10626 10618 10610 10600 10591 10584 10574 10567 10561 10552 10546 10536 10526 10517 10511 10508 10504 10502 10503 10506 10508 10509 10510 10510 10516 10519 10524 10531 10535 10541 10545 10548 10550 10555 10563 10570
10655 10649 10641 10637 10632 10626 10619 10612 10604 10596 10585 10576 10566 10556 10547 10539 10531 10522 10513 10504 10495 10488 10485 10482 10480 10482 10485 10487 10489 10490 10492 10495 10499 10505 10509 10512 10519 10525 10530 10535 10538 10543 10547
10643 10636 10629 10624 10620 10611 10604 10596 10587 10579 10568 10558 10548 10537 10525 10516 10508 10499 10490 10480 10473 10468 10463 10459 10460 10461 10464 10467 10470 10471 10473 10476 10480 10486 10490 10494 10497 10501 10509 10515 10521 10525 10526